Rockford, IL

11:30 AM CDT on September 25, 2016 (GMT -0500)
Greater Rockford

Weather History for KRFD - June, 2013

Change the Weather History Date:

Tuesday, June 18, 2013

  Actual Average Record
Temperature  
Mean Temperature 67 °F 71 °F  
Max Temperature 78 °F 82 °F 99 °F (1994)
Min Temperature 56 °F 60 °F 47 °F (1999)
Degree Days  
Heating Degree Days 0 1  
Month to date heating degree days 34 27  
Since 1 June heating degree days 34 27  
Since 1 July heating degree days 6578 6565  
Cooling Degree Days 2 6  
Month to date cooling degree days 69 83  
Year to date cooling degree days 161 138  
Since 1 June cooling degree days 69 83  
Growing Degree Days 18 (Base 50)    
Moisture  
Dew Point 52 °F    
Average Humidity 63    
Maximum Humidity 80    
Minimum Humidity 45    
Precipitation  
Precipitation 0.00 in 0.16 in 3.35 in (1940)
Month to date precipitation 1.30 2.90  
Year to date precipitation 20.74 15.37  
Snow  
Snow 0.00 in 0.00 in 0.00 in ()
Month to date snowfall 0.0 0.0  
Since 1 June snowfall 0.0 0.0  
Since 1 July snowfall 40.5 36.7  
Snow Depth 0.00 in    
Sea Level Pressure  
Sea Level Pressure 30.03 in    
Wind  
Wind Speed 10 mph (NE)    
Max Wind Speed 16 mph    
Max Gust Speed 29 mph    
Visibility 10 miles    
Events      
T = Trace of Precipitation, MM = Missing Value Source: NWS Daily Summary

Daily Weather History Graph

Daily Weather History Graph

Search for Another Location

Airport or City:

Trip Planner

Search our weather history database for the weather conditions in past years. The results will help you decide how hot, cold, wet, or windy it might be!

Date:

Astronomy

Jun. 18, 2013 Rise Set
Actual Time 5:19 AM CDT 8:35 PM CDT
Civil Twilight 4:45 AM CDT 9:10 PM CDT
Nautical Twilight 4:00 AM CDT 9:54 PM CDT
Astronomical Twilight 3:05 AM CDT 10:49 PM CDT
Moon 3:15 PM CDT (6/18) 1:32 AM CDT (6/18)
Length of Visible Light 16h 25m
Length of Day
15h 15m
Waxing Gibbous, 71% of the Moon is Illuminated
Jun 18
Waxing Gibbous
Jun 23
Full
Jun 29
Last Quarter
Jul 8
New
Jul 15
First Quarter

Hourly Weather History & Observations

Time (CDT) Temp. Dew Point Humidity Pressure Visibility Wind Dir Wind Speed Gust Speed Precip Events Conditions
12:54 AM 62.1 °F 53.1 °F 72% 29.95 in 10.0 mi NE 11.5 mph - N/A   Scattered Clouds
1:54 AM 61.0 °F 52.0 °F 72% 29.96 in 10.0 mi NE 11.5 mph - N/A   Partly Cloudy
2:54 AM 60.1 °F 51.1 °F 72% 29.96 in 10.0 mi NE 11.5 mph - N/A   Clear
3:54 AM 59.0 °F 50.0 °F 72% 29.96 in 10.0 mi NE 11.5 mph - N/A   Scattered Clouds
4:54 AM 57.9 °F 50.0 °F 75% 29.98 in 10.0 mi NE 9.2 mph - N/A   Mostly Cloudy
5:54 AM 57.9 °F 51.1 °F 78% 30.01 in 10.0 mi NE 10.4 mph - N/A   Overcast
6:54 AM 59.0 °F 52.0 °F 78% 30.03 in 10.0 mi NE 10.4 mph - N/A   Overcast
7:54 AM 61.0 °F 52.0 °F 72% 30.05 in 10.0 mi NE 8.1 mph - N/A   Overcast
8:54 AM 64.0 °F 54.0 °F 70% 30.04 in 10.0 mi NE 10.4 mph - N/A   Scattered Clouds
9:54 AM 68.0 °F 55.0 °F 63% 30.03 in 10.0 mi NE 11.5 mph - N/A   Partly Cloudy
10:54 AM 71.1 °F 55.9 °F 59% 30.03 in 10.0 mi ENE 9.2 mph - N/A   Scattered Clouds
11:54 AM 73.9 °F 57.0 °F 55% 30.03 in 10.0 mi NE 10.4 mph - N/A   Scattered Clouds
12:54 PM 75.9 °F 57.0 °F 52% 30.04 in 10.0 mi NE 6.9 mph 20.7 mph N/A   Scattered Clouds
1:54 PM 75.0 °F 55.0 °F 50% 30.04 in 10.0 mi NE 6.9 mph - N/A   Scattered Clouds
2:54 PM 78.1 °F 55.9 °F 46% 30.04 in 10.0 mi ENE 11.5 mph 20.7 mph N/A   Scattered Clouds
3:54 PM 73.9 °F 55.0 °F 52% 30.04 in 10.0 mi ENE 9.2 mph - N/A   Scattered Clouds
4:54 PM 75.9 °F 55.0 °F 48% 30.04 in 10.0 mi NE 12.7 mph - N/A   Scattered Clouds
5:54 PM 73.0 °F 54.0 °F 51% 30.04 in 10.0 mi ENE 11.5 mph - N/A   Scattered Clouds
6:54 PM 72.0 °F 53.1 °F 51% 30.04 in 10.0 mi ENE 10.4 mph - N/A   Partly Cloudy
7:54 PM 69.1 °F 48.0 °F 47% 30.05 in 10.0 mi East 11.5 mph - N/A   Clear
8:54 PM 64.9 °F 51.1 °F 61% 30.07 in 10.0 mi ENE 6.9 mph - N/A   Clear
9:54 PM 62.1 °F 46.9 °F 58% 30.10 in 10.0 mi ENE 9.2 mph - N/A   Clear
10:54 PM 59.0 °F 45.0 °F 60% 30.09 in 10.0 mi ENE 6.9 mph - N/A   Clear
11:54 PM 57.0 °F 45.0 °F 64% 30.10 in 10.0 mi ENE 5.8 mph - N/A   Clear